Location: Shenandoah County Park
(38.9356°N, 78.4524°W)
Time: 15:28:42
(UTC-05:00)

Vanguard 2 Rocket - Pass Details

Date: 03 December 2023
Orbit: 555 x 3309 km, 32.9° (Epoch: 03 March)

Event Time Altitude Azimuth Distance (km) Brightness Sun altitude
Rises 12:10:30 0° 195° (SSW) 5,670 12.1 28.9°
Reaches altitude 10° 12:14:51 10° 183° (S) 5,068 12.4 28.9°
Maximum altitude 12:26:40 26° 134° (SE) 4,665 11.3 28.7°
Drops below altitude 10° 12:40:59 10° 88° (E) 6,266 11.1 28.3°
Sets 12:47:08 0° 78° (ENE) 7,250 11.3 28.1°
